Regional Weather Roundup
Issued by NWS Northern Indiana

Home | Current Version | Previous Version | Graphics & Text | Print | Product List | Glossary On
Versions: 1 2 3 4 5 6 7 8 9 10 11 12 13 14 15 16 17 18 19 20 21 22 23 24 25 26 27 28 29 30 31 32 33 34 35 36 37 38 39 40 41 42 43 44 45 46 47 48 49 50
000
ASUS43 KIWX 290900
RWRIWX

KIWX WEATHER ROUNDUP
NATIONAL WEATHER SERVICE NORTHERN INDIANA
400 AM EST SAT NOV 29 2014

NOTE: "FAIR" INDICATES FEW OR NO CLOUDS BELOW 12,000 FEET WITH NO
SIGNIFICANT WEATHER AND/OR OBSTRUCTIONS TO VISIBILITY.

* THESE STATIONS ARE NOT UNDER NWS QUALITY CONTROL. THEY ALSO MAY NOT
  REPORT WEATHER SUCH AS PRECIPITATION OR FOG.

INZ001>027-291000-
NORTHERN INDIANA

CITY           SKY/WX    TMP DP  RH WIND       PRES   REMARKS
SOUTH BEND     PTCLDY    32  24  72 SE9       29.89F WCI  24
GOSHEN         PTCLDY    32  23  69 S15       29.91F WCI  22
ANGOLA*        PTCLDY    28  14  54 SE8       29.95F WCI  20
FORT WAYNE     MOCLDY    30  22  72 SE8       29.97F WCI  22
PERU/GRISSOM   PTCLDY    30  27  88 SE10      29.91F WCI  21

$$
INZ028>050-291000-
CENTRAL INDIANA

CITY           SKY/WX    TMP DP  RH WIND       PRES   REMARKS
LAFAYETTE      PTCLDY    33  25  72 S5        29.90F WCI  29
KOKOMO*        CLEAR     30  23  74 S10       29.93F WCI  21
MUNCIE*        PTCLDY    34  22  61 S13       29.96F WCI  25
INDIANAPOLIS   PTCLDY    31  23  72 SE8       29.94F WCI  23

$$
MIZ043>046-050>051-056>058-064>065-071>073-077>080-291000-
SOUTHWEST LOWER MICHIGAN

CITY           SKY/WX    TMP DP  RH WIND       PRES   REMARKS
BATTLE CREEK   CLOUDY    32  22  66 S10       29.91F WCI  24
BENTON HARBOR  PTCLDY    30  24  78 SE9       29.87F WCI  22
COLDWATER*     CLOUDY    32  24  71 MISG      29.93F
HILLSDALE*     CLOUDY    30  24  78 S8        29.94F WCI  22
HOLLAND        CLOUDY    33  25  72 SE7       29.88F WCI  27
GRAND RAPIDS   MIX PCPN  30  25  81 SE9       29.89F WCI  22
KALAMAZOO      CLOUDY    32  23  69 S8        29.90F WCI  25
STURGIS*       MOCLDY    30  25  80 S12       29.91F WCI  21
THREE RIVERS*  FAIR      32  24  72 S10       29.92F WCI  24

$$
OHZ001>008-015>018-024>025-291000-
NORTHWEST OHIO

CITY           SKY/WX    TMP DP  RH WIND       PRES   REMARKS
DEFIANCE       CLOUDY    33  22  63 S8        30.00F WCI  26
FINDLAY        CLOUDY    32  22  66 SE8       30.01F WCI  25
TOLEDO EXPRESS CLOUDY    30  23  75 SE3       30.01F
TOLEDO METCALF CLOUDY    32  22  66 S7        30.03F WCI  26
LIMA           MOCLDY    33  20  58 S13       30.00F WCI  24

$$
AND FOR LAKE MICHIGAN COASTAL AND OPEN LAKE BUOY OBSERVATIONS

STATION/POSITION TEMP    WIND        PRES    VSBY  WAVE
                 AIR SEA DIR/SP/G                  HT/PER
                 (F)     (DEG/KT/KT) (MB)    (MI)  (FT/S)
CALUMET HARBOR    34     160/ 11/ 15 1009.1F
MICHIGAN CITY     34     140/ 16/ 22   N/A
SAINT JOSEPH      33     150/  3/  8 1012.9F
SOUTH LAKE BUOY   39 42  180/ 19/ 21 1011.5F         5/ 6

$$
&&


USA.gov is the U.S. government's official web portal to all federal, state and local government web resources and services.